User: anonymous   Login
Location: Unspecified
(0.0000°N, 0.0000°E)
Time: 08:34:17
(UTC+00:00)
Language:

Vela 3A - Orbit

View from above orbital plane
View from above orbital plane
View from above satellite
View from above satellite

Ground track
Ground track

The orbit data is extracted from the following two-line orbital elements,

1 01458U 65058A   14356.60126435 -.00000525  00000-0  00000+0 0   238
2 01458 021.5681 011.7813 5142443 189.7108 001.3155 00.21517173 77232
Epoch (UTC): 22 December 2014 14:25:49
Eccentricity: 0.5142443
inclination: 21.5681°
perigee height: 50764 km
apogee height: 171751 km
right ascension of ascending node: 11.7813°
argument of perigee: 189.7108°
revolutions per day: 0.21517173
mean anomaly at epoch: 1.3155°
orbit number at epoch: 7723

The dashed part of the orbit path shows where the satellite is in the earth's shadow,  

DLR